Location: �clusier
(49.9361°N, 2.7869°E)
Time: 04:32:55
(UTC+00:00)

Cosmos 2016 Rocket - Pass Details

Date: 28 October 2021
Orbit: 947 x 1000 km, 83.0° (Epoch: 05 December)

Event Time Altitude Azimuth Distance (km) Brightness Sun altitude
Rises 05:31:51 0° 353° (N) 3,630 6.8 -10.2°
Reaches altitude 10° 05:34:28 10° 0° (N) 2,681 6.2 -9.8°
Maximum altitude 05:40:20 46° 73° (ENE) 1,266 5.2 -8.8°
Drops below altitude 10° 05:46:10 10° 146° (SE) 2,679 7.0 -7.9°
Sets 05:48:47 0° 152° (SSE) 3,627 7.6 -7.5°
